Wind_Speed
24 24 24 23 20 16 15 13 18 20 18 13 14 15 13 16 11 12 11 8 10 7 6 6 4 5 5 5 3 5 7 5 7 14 10 14 17 18 16 6 7 6 6 7
25 25 25 22 18 14 12 9 14 12 9 9 11 12 12 12 11 9 8 7 8 10 7 2 4 3 7 6 7 6 4 3 1 3 10 12 16 15 12 13 5 17 4 12
22 20 18 15 11 12 9 5 9 11 8 9 10 11 12 14 10 8 9 10 9 6 5 5 6 12 9 9 10 9 10 11 11 8 8 9 14 16 14 12 8 5 14 26
21 18 14 11 10 10 8 5 8 7 9 9 8 10 15 13 12 11 12 10 9 7 4 9 8 12 11 9 12 14 14 14 17 17 15 13 11 13 15 18 15 10 14 23
20 17 15 13 10 7 5 7 12 11 9 9 12 15 14 11 10 11 10 9 6 7 5 5 9 10 9 5 6 9 8 6 4 6 3 5 11 10 10 14 14 13 15 19
16 16 13 10 10 13 12 9 8 6 7 9 13 14 11 12 12 12 12 11 9 9 7 6 7 6 6 9 9 5 7 3 1 2 6 7 4 5 11 12 13 14 16 15
17 13 11 10 12 9 8 7 5 4 7 10 13 13 11 10 10 12 12 12 12 10 9 7 7 7 7 5 5 5 3 1 2 4 6 2 3 3 6 8 11 11 12 15
16 14 11 13 10 8 8 8 6 5 8 11 13 14 13 13 12 12 11 10 12 11 11 8 3 2 3 3 2 3 2 1 2 2 2 6 4 2 2 4 5 8 11 13
15 15 17 13 8 9 10 9 7 7 9 11 12 13 13 12 11 12 13 12 9 9 6 3 3 3 3 2 3 4 3 2 3 3 3 4 3 2 1 5 3 5 8 11
14 15 16 12 8 5 8 10 8 8 8 12 11 11 12 10 7 8 7 8 7 6 6 6 5 5 5 4 4 5 7 6 6 5 5 6 4 2 2 2 2 3 6 8
13 14 13 9 7 5 5 6 5 6 8 10 11 10 10 9 9 7 6 4 4 5 5 5 5 5 6 7 8 6 7 5 6 6 5 5 5 4 2 1 1 2 3 6
15 14 13 10 7 2 3 7 6 3 4 7 9 9 10 8 8 7 4 3 3 2 3 4 4 6 5 6 4 10 6 10 4 8 5 6 5 6 7 2 3 1 1 2
18 15 14 11 10 5 5 7 6 4 1 3 6 8 8 7 6 6 4 4 5 3 1 3 4 5 7 6 8 10 10 12 12 9 9 9 8 9 7 5 3 2 1 1
23 19 16 13 13 9 7 8 7 5 2 1 4 6 7 7 5 5 5 4 3 2 2 4 6 7 9 10 12 14 13 12 11 12 9 10 11 11 11 10 8 7 7 7
25 22 19 15 17 15 10 8 7 8 6 4 4 6 7 7 7 6 6 6 6 7 7 8 9 10 13 14 18 14 15 10 12 6 10 11 13 15 14 13 13 14 14 12
28 24 23 21 20 18 14 12 9 9 9 7 4 6 7 9 10 10 10 11 11 12 12 13 13 9 12 11 14 8 9 11 15 13 14 14 15 16 18 16 14 13 12 11
23 23 23 21 20 20 19 14 12 12 12 13 9 5 6 9 12 13 14 15 16 17 19 19 17 16 18 25 23 11 13 12 13 13 13 13 14 11 13 15 17 18 16 15
19 21 22 20 20 21 22 20 18 17 16 15 6 7 8 7 8 12 16 18 18 21 22 23 20 21 21 20 12 8 11 14 14 12 12 13 15 17 16 17 17 15 15 16
21 21 21 21 21 20 20 24 26 24 19 14 13 13 10 6 6 9 13 15 18 20 21 21 17 22 20 13 14 10 9 10 8 14 14 15 13 13 14 15 15 14 13 12
24 23 22 22 23 21 21 23 25 28 29 32 32 29 29 23 19 18 12 10 8 10 13 13 16 24 14 10 16 20 17 14 16 16 13 13 14 13 13 11 13 14 14 15
25 26 26 22 17 20 19 12 10 9 10 13 15 14 17 19 24 20 10 7 7 6 8 8 8 11 11 9 9 13 20 22 18 17 16 16 15 15 16 16 16 16 16 14
25 26 26 21 15 12 11 10 10 12 9 10 9 7 8 10 10 10 8 11 7 7 8 6 5 6 8 11 15 16 14 17 22 21 21 22 20 19 19 19 20 19 19 20
22 24 21 14 15 19 13 15 15 11 11 8 6 5 5 5 7 7 7 7 9 8 7 6 12 19 17 17 18 16 16 16 19 25 26 27 26 24 22 21 22 23 23 22
26 20 16 15 12 15 26 25 16 20 13 10 11 10 5 5 5 8 6 9 7 6 7 13 17 22 23 21 18 16 16 16 18 22 27 30 29 28 27 26 26 26 26 25
32 17 13 23 23 16 11 21 24 21 20 19 17 16 14 11 9 8 9 7 9 8 6 7 7 11 14 16 17 18 18 19 20 21 23 28 31 31 31 30 29 29 30 29
35 22 21 21 16 19 22 15 13 15 18 17 16 12 7 11 9 11 13 8 8 8 13 14 14 16 19 25 27 25 22 20 20 22 22 25 29 32 32 33 33 32 31 30
48 39 41 32 18 14 17 20 23 20 19 18 14 10 11 9 12 19 20 29 27 28 26 28 32 34 37 36 37 40 42 36 28 25 26 26 28 32 35 37 36 34 33 32
Wind_Direction
84 92 100 111 115 102 92 74 97 121 112 104 83 87 114 133 123 125 118 112 134 147 153 171 188 195 210 124 50 19 15 32 58 64 56 72 66 50 48 41 354 347 307 317
95 101 104 102 97 100 110 82 93 127 114 105 95 91 112 136 140 130 133 136 150 157 148 122 143 130 141 108 71 41 32 37 346 54 45 63 63 56 54 59 63 25 352 324
104 108 107 99 84 91 107 77 99 104 120 98 93 98 117 128 134 132 141 145 145 162 183 170 142 124 116 90 81 77 67 73 77 109 100 81 70 60 61 78 62 353 17 349
108 112 109 95 84 83 82 92 113 106 112 82 100 122 128 127 127 131 142 145 136 137 119 121 126 134 124 103 96 103 99 92 94 95 82 64 56 58 59 63 59 47 25 15
117 116 111 93 79 61 53 93 114 117 100 88 109 123 128 129 135 142 146 143 151 145 125 122 138 129 132 129 127 130 113 122 98 105 81 360 32 52 58 60 53 35 37 23
130 126 119 97 85 86 84 85 104 98 109 105 122 125 129 127 128 134 136 135 126 136 143 136 145 142 126 135 149 155 139 144 234 279 306 300 267 28 45 43 41 23 24 21
141 136 129 112 107 84 78 72 70 98 116 131 131 129 128 128 131 140 141 141 140 144 141 136 137 128 115 117 129 159 198 251 331 292 311 307 252 350 30 19 30 32 34 35
153 147 141 131 118 93 79 75 75 98 128 135 137 130 125 121 119 128 138 145 148 148 142 127 131 156 109 108 130 177 196 204 248 259 281 287 260 246 24 20 33 45 47 43
168 157 151 144 128 98 79 72 86 96 130 141 142 133 128 124 116 123 123 138 152 165 177 194 235 279 271 214 211 224 195 226 251 250 250 237 308 211 36 2 57 45 53 53
177 168 164 158 143 95 75 72 78 90 120 143 144 137 133 131 128 136 139 130 151 178 205 218 226 236 228 251 244 225 225 234 237 234 266 272 268 245 284 338 350 47 37 42
200 190 186 183 166 123 58 41 74 99 120 146 147 142 140 137 132 136 147 152 161 175 211 223 231 241 241 257 242 242 231 233 217 212 243 285 220 209 191 282 327 356 6 39
211 212 211 212 208 183 38 28 23 72 151 155 163 152 144 139 140 137 142 181 199 238 248 245 254 241 252 270 269 237 245 229 246 226 229 265 249 227 220 250 241 257 323 72
226 228 233 234 234 255 337 1 11 28 4 179 188 185 174 161 150 156 136 151 146 164 197 281 276 276 280 267 271 257 261 250 247 263 248 247 241 238 238 239 232 252 265 28
233 236 246 254 253 254 297 338 357 6 2 277 242 222 215 203 194 188 191 188 195 214 248 269 268 281 260 271 265 264 250 247 241 233 228 226 219 218 216 208 196 202 205 200
236 239 240 247 255 252 269 302 316 353 352 327 256 243 243 250 252 250 250 252 259 269 276 277 284 286 285 285 276 269 239 239 226 245 210 205 199 207 211 205 201 196 198 201
244 240 244 242 241 245 250 278 291 314 326 328 303 268 249 242 254 265 271 278 283 283 286 291 287 285 280 278 277 288 262 238 222 222 219 212 203 200 195 198 206 204 201 201
233 230 237 242 248 248 242 255 276 301 312 318 311 278 258 265 254 255 263 272 278 282 286 286 286 287 276 278 286 299 260 252 244 236 228 220 217 214 209 200 199 197 193 194
229 224 223 228 235 242 243 255 267 279 296 309 285 287 291 292 287 271 267 267 271 278 280 281 282 280 277 282 312 298 259 246 248 247 238 220 214 217 213 210 210 205 200 200
223 221 222 222 225 233 244 254 263 269 278 281 269 274 295 267 288 308 300 281 275 274 270 275 278 272 261 296 301 294 272 267 261 251 249 246 241 234 228 225 219 213 215 220
221 214 213 224 229 235 245 255 264 269 272 266 269 271 258 266 274 289 301 294 272 279 280 283 271 285 337 294 265 257 261 260 253 260 264 267 265 266 255 245 234 226 226 230
225 218 215 219 227 229 240 245 241 246 247 261 268 265 268 261 259 264 267 269 275 261 259 262 273 325 311 302 305 290 260 251 251 250 232 235 233 235 239 244 246 244 245 249
224 227 221 218 213 216 215 226 221 227 232 243 257 253 265 268 266 252 252 256 249 251 254 248 244 281 295 303 304 298 287 268 253 248 245 245 247 249 248 244 243 244 245 249
220 221 215 218 220 216 209 210 211 202 213 221 236 260 271 283 251 227 234 243 240 259 236 237 258 277 284 289 298 289 275 265 259 250 244 244 246 247 248 249 248 248 250 253
214 209 210 213 217 215 217 225 232 220 215 227 249 255 247 258 261 235 235 239 250 243 238 251 264 279 290 292 293 286 277 276 270 252 245 247 249 249 250 250 250 251 253 255
208 206 219 228 226 217 219 226 228 228 231 239 246 258 264 256 230 233 229 233 228 224 222 239 295 317 323 320 308 309 296 281 274 262 254 249 250 251 251 250 251 252 253 256
210 219 219 230 227 226 224 222 221 225 229 235 236 238 241 235 225 215 221 231 214 258 257 263 277 295 304 310 312 313 310 301 285 270 260 256 253 251 251 249 250 251 253 255
219 232 228 231 234 217 219 228 235 242 238 230 232 227 220 226 232 228 234 242 268 273 273 277 282 281 287 286 283 285 294 295 294 290 284 270 262 257 253 251 250 250 251 253
Height
3024 3022 3021 3022 3023 3024 3024 3024 3021 3024 3025 3027 3026 3027 3028 3031 3033 3035 3037 3038 3038 3038 3039 3040 3040 3041 3042 3042 3042 3042 3042 3041 3040 3039 3037 3035 3032 3032 3032 3031 3034 3030 3028 3022
3030 3030 3029 3029 3029 3029 3028 3029 3028 3029 3029 3030 3030 3031 3032 3033 3035 3037 3038 3038 3039 3040 3040 3041 3040 3041 3042 3043 3043 3043 3043 3043 3042 3043 3042 3039 3034 3036 3036 3035 3035 3034 3031 3024
3036 3036 3036 3036 3034 3033 3033 3032 3032 3033 3034 3034 3034 3034 3035 3036 3038 3039 3039 3040 3040 3040 3040 3041 3042 3043 3045 3046 3045 3044 3044 3044 3045 3046 3045 3042 3039 3039 3037 3036 3035 3035 3032 3023
3037 3040 3040 3040 3038 3037 3037 3036 3036 3036 3037 3036 3036 3037 3038 3039 3040 3041 3042 3043 3043 3043 3042 3042 3043 3045 3047 3048 3048 3047 3048 3048 3048 3047 3046 3044 3041 3041 3040 3036 3036 3035 3034 3026
3039 3040 3042 3042 3041 3040 3040 3039 3038 3038 3039 3039 3039 3040 3041 3042 3043 3043 3044 3045 3045 3044 3045 3045 3045 3046 3048 3050 3051 3049 3050 3051 3051 3050 3048 3047 3044 3042 3040 3039 3037 3034 3034 3029
3045 3043 3043 3044 3044 3043 3043 3042 3042 3042 3042 3042 3043 3044 3044 3045 3045 3046 3047 3047 3047 3047 3048 3047 3046 3047 3049 3050 3052 3051 3052 3052 3051 3050 3048 3047 3045 3042 3040 3040 3039 3036 3032 3031
3046 3047 3046 3046 3046 3046 3045 3045 3045 3045 3045 3045 3045 3046 3046 3047 3047 3047 3049 3049 3049 3050 3049 3049 3048 3049 3050 3051 3053 3053 3052 3052 3051 3049 3046 3046 3042 3040 3041 3039 3041 3037 3034 3030
3049 3048 3049 3048 3047 3047 3047 3047 3047 3047 3047 3047 3047 3047 3048 3049 3049 3049 3050 3051 3052 3052 3052 3051 3050 3050 3053 3053 3053 3052 3052 3051 3050 3049 3045 3042 3039 3039 3041 3040 3042 3039 3036 3033
3052 3051 3050 3051 3051 3049 3047 3047 3048 3049 3050 3050 3050 3049 3050 3051 3051 3052 3052 3053 3053 3053 3054 3054 3051 3050 3050 3051 3051 3051 3051 3050 3049 3046 3045 3042 3038 3039 3039 3039 3040 3039 3037 3035
3057 3055 3054 3053 3053 3054 3051 3049 3048 3050 3051 3051 3052 3052 3052 3052 3052 3053 3053 3054 3054 3055 3054 3053 3052 3051 3050 3048 3047 3048 3049 3047 3046 3044 3043 3038 3037 3038 3038 3039 3043 3038 3036 3035
3060 3060 3058 3057 3056 3055 3055 3053 3050 3050 3051 3053 3053 3053 3053 3053 3054 3054 3055 3056 3054 3054 3054 3053 3051 3050 3049 3046 3044 3044 3045 3045 3043 3042 3040 3037 3036 3037 3037 3038 3036 3036 3036 3035
3062 3062 3061 3060 3059 3058 3057 3056 3055 3053 3052 3053 3053 3054 3054 3055 3054 3055 3055 3055 3054 3054 3053 3052 3050 3049 3048 3045 3043 3041 3042 3041 3040 3039 3036 3034 3035 3035 3035 3036 3036 3036 3035 3034
3062 3063 3064 3064 3063 3062 3061 3060 3058 3056 3056 3054 3053 3053 3054 3054 3055 3055 3056 3055 3054 3053 3053 3052 3050 3048 3046 3044 3042 3040 3038 3038 3036 3036 3032 3032 3032 3033 3034 3034 3035 3035 3035 3034
3059 3063 3064 3065 3064 3063 3063 3061 3060 3058 3056 3056 3056 3055 3054 3054 3053 3054 3055 3054 3053 3053 3052 3051 3050 3048 3047 3044 3042 3038 3038 3036 3034 3033 3032 3032 3032 3033 3034 3035 3035 3035 3036 3037
3055 3058 3060 3062 3063 3063 3063 3062 3061 3059 3059 3056 3054 3054 3055 3055 3055 3054 3053 3053 3053 3052 3051 3050 3048 3047 3045 3041 3037 3033 3033 3032 3032 3033 3032 3032 3032 3032 3033 3034 3035 3036 3037 3037
3053 3055 3057 3058 3059 3061 3062 3062 3061 3059 3057 3056 3055 3054 3052 3052 3052 3053 3053 3052 3051 3050 3049 3047 3044 3044 3044 3038 3032 3033 3031 3030 3031 3030 3030 3030 3031 3032 3032 3032 3032 3033 3034 3034
3047 3048 3052 3055 3058 3060 3060 3061 3059 3057 3056 3055 3053 3051 3051 3050 3049 3049 3049 3049 3048 3047 3045 3042 3041 3041 3040 3033 3028 3030 3029 3028 3028 3028 3028 3028 3029 3030 3031 3031 3032 3032 3032 3033
3042 3044 3046 3049 3051 3054 3056 3057 3055 3054 3054 3053 3052 3050 3050 3049 3047 3047 3046 3044 3044 3041 3040 3037 3037 3036 3034 3026 3026 3025 3024 3025 3025 3025 3026 3026 3025 3026 3027 3028 3028 3029 3030 3030
3035 3039 3042 3044 3047 3049 3051 3051 3051 3050 3054 3050 3048 3048 3048 3046 3045 3044 3043 3041 3038 3036 3033 3033 3033 3028 3023 3025 3024 3023 3023 3023 3024 3023 3023 3023 3023 3023 3023 3024 3025 3025 3025 3026
3031 3034 3037 3039 3042 3045 3046 3045 3045 3044 3044 3040 3040 3041 3041 3044 3042 3041 3042 3037 3035 3032 3030 3028 3023 3018 3021 3019 3018 3018 3019 3019 3019 3020 3021 3021 3021 3021 3021 3022 3022 3022 3022 3023
3029 3030 3032 3035 3037 3040 3041 3041 3040 3039 3035 3032 3032 3034 3034 3036 3036 3037 3039 3034 3032 3029 3027 3027 3020 3017 3016 3015 3014 3013 3013 3014 3015 3015 3016 3016 3017 3017 3018 3019 3019 3019 3019 3019
3026 3027 3028 3031 3034 3035 3036 3032 3032 3031 3030 3027 3028 3029 3029 3030 3031 3032 3032 3032 3030 3025 3023 3021 3015 3014 3012 3011 3010 3009 3008 3008 3009 3010 3011 3011 3012 3013 3013 3014 3015 3016 3016 3015
3022 3023 3024 3026 3027 3024 3020 3019 3019 3022 3023 3024 3025 3026 3027 3027 3028 3028 3028 3025 3023 3021 3017 3015 3014 3010 3008 3007 3005 3004 3003 3002 3002 3004 3004 3004 3005 3006 3007 3009 3009 3010 3010 3010
3017 3019 3017 3016 3010 3006 3006 3010 3013 3017 3019 3021 3022 3023 3024 3024 3025 3024 3022 3020 3018 3014 3011 3008 3007 3005 3003 3002 3000 2999 2998 2997 2997 2996 2997 2998 2999 3000 3001 3001 3002 3002 3003 3004
3009 3009 3004 2999 2998 3001 3003 3005 3008 3011 3014 3016 3018 3020 3021 3020 3021 3019 3016 3013 3007 3004 3003 3003 3003 3001 2999 2997 2996 2995 2993 2992 2991 2990 2990 2991 2992 2992 2993 2994 2994 2995 2995 2995
2998 2993 2989 2991 2994 2997 3001 3002 3004 3006 3009 3011 3013 3012 3015 3015 3013 3010 3008 3004 2999 3000 3000 3000 2999 2997 2996 2993 2992 2991 2989 2987 2985 2985 2983 2982 2982 2983 2984 2984 2985 2985 2986 2987
2982 2978 2985 2987 2990 2993 2996 2997 2999 3002 3004 3006 3007 3006 3008 3004 3002 2998 2995 2994 2999 2998 2997 2996 2995 2992 2989 2988 2986 2984 2982 2983 2982 2979 2977 2975 2973 2973 2973 2973 2975 2976 2977 2977